Temperature
28 30 31 31 31 31 31 31 31 31 31 31 31 31 30 29 28 28 27 26 24 23 22 21 20 20 20 20 20 20 19 19 19 18 18 18 18 18 18 18 18 18 17 17
29 30 31 30 30 29 30 30 31 31 31 31 31 31 31 29 29 28 27 26 25 24 22 21 20 20 20 20 20 20 19 19 19 18 18 18 18 18 18 18 18 18 18 17
29 30 29 29 29 29 30 30 31 30 30 31 31 31 30 30 28 27 27 26 26 24 23 22 21 20 20 20 20 19 19 19 19 18 18 18 18 18 18 18 18 18 18 17
29 30 28 29 29 30 30 31 30 30 30 31 30 31 31 31 30 29 28 27 26 25 23 22 21 21 20 20 20 20 19 19 19 18 18 18 18 18 18 18 18 18 18 17
29 29 28 29 30 30 30 30 30 30 30 30 31 30 31 31 30 30 29 28 27 25 24 22 22 21 21 20 20 19 19 19 19 18 18 18 17 17 17 17 17 18 17 17
30 29 29 30 30 30 29 29 29 30 31 29 30 30 30 31 31 30 29 27 26 25 24 23 22 21 20 20 20 19 19 19 19 18 18 18 18 17 17 17 17 17 17 17
28 29 29 29 29 29 29 29 29 29 29 30 29 29 30 31 30 30 29 27 26 25 24 22 22 21 20 20 19 19 19 19 19 18 18 18 18 17 17 17 17 17 17 17
28 29 29 29 30 30 29 30 29 29 29 30 29 30 31 31 29 29 28 27 26 25 24 23 22 21 20 20 19 19 19 19 18 18 18 18 18 17 17 17 17 17 17 17
29 29 30 30 30 30 30 30 32 30 30 29 30 30 31 31 30 29 28 27 26 25 24 23 22 21 21 20 19 19 19 18 18 18 18 18 17 17 17 17 17 17 17 17
30 29 29 29 29 29 30 31 30 30 28 28 29 30 30 31 30 30 29 28 26 25 24 23 22 21 21 20 19 19 18 18 18 18 18 17 17 17 17 17 17 17 17 17
29 28 29 29 29 29 28 29 30 30 30 29 29 30 32 31 31 30 29 28 27 25 25 23 22 21 21 20 19 18 18 18 18 18 18 17 17 17 17 17 17 17 17 17
29 29 29 29 30 30 30 30 29 29 28 29 29 31 31 31 31 30 29 28 27 25 25 23 22 21 21 20 19 19 18 18 18 18 17 17 17 17 17 17 17 17 17 17
28 27 27 28 28 28 29 29 30 30 29 29 29 30 31 30 30 29 29 27 26 25 24 23 22 21 21 20 19 19 18 18 18 18 17 17 17 17 17 17 17 17 17 17
27 27 28 28 29 30 29 29 29 29 29 29 29 30 31 31 30 30 28 27 25 24 23 23 22 21 20 20 19 19 18 18 18 17 17 17 17 17 17 17 17 17 17 17
26 27 28 29 30 30 30 29 29 29 30 30 30 30 31 31 30 29 27 26 25 24 23 22 21 21 20 19 19 19 18 18 18 17 17 17 17 17 17 17 17 17 17 16
25 26 27 27 29 29 29 29 29 29 30 30 30 30 31 30 29 28 27 26 25 24 23 22 21 21 20 20 19 19 19 18 18 17 17 17 17 17 17 17 17 17 17 16
25 25 26 27 28 28 28 29 29 29 30 30 30 30 30 30 29 27 26 26 25 24 23 22 21 21 20 20 20 19 19 19 18 18 17 17 17 17 17 17 17 16 16 16
23 24 26 27 26 26 29 30 30 30 30 30 30 30 29 28 27 25 25 25 24 24 23 22 21 21 20 20 19 19 19 18 18 18 17 17 17 17 17 17 16 16 16 16
23 23 25 27 26 27 28 28 29 29 29 29 29 29 28 26 26 26 23 23 23 23 22 21 21 21 20 20 20 19 19 18 18 18 17 17 17 17 16 16 16 16 16 16
23 23 24 25 26 26 28 28 27 28 28 28 28 27 27 26 29 27 22 21 21 21 21 20 20 20 20 19 19 19 18 18 18 18 17 17 17 17 16 16 16 16 15 15
23 23 24 25 25 27 27 26 26 26 27 26 26 25 25 26 25 22 20 20 20 19 19 19 19 19 19 19 18 18 18 18 18 18 17 17 17 16 16 16 15 15 15 15
24 24 24 24 25 26 25 25 26 25 23 23 24 23 23 22 21 20 19 19 19 18 18 18 18 18 18 18 18 18 17 17 17 17 17 17 16 16 15 15 15 15 14 14
24 24 25 25 25 23 22 23 22 21 22 22 22 22 21 20 20 19 18 18 17 17 17 17 17 17 17 17 17 17 17 17 17 17 16 16 16 15 15 14 14 14 14 14
22 21 23 23 23 22 21 21 20 20 20 20 20 20 20 20 19 18 17 17 16 16 17 17 17 17 17 17 17 17 17 17 16 16 16 15 15 14 14 14 14 13 13 13
21 21 22 22 22 21 20 20 19 19 19 19 19 19 19 18 18 17 16 16 16 16 16 16 16 16 16 16 16 16 16 16 15 15 15 14 14 14 13 13 13 13 13 13
20 20 21 22 20 21 20 18 18 18 18 18 18 18 18 17 17 16 16 15 15 15 15 15 15 15 15 15 15 15 16 15 15 14 14 14 13 13 13 13 13 12 12 12
Wind_Speed
6 9 9 5 4 3 3 4 3 1 2 4 4 4 2 3 6 7 8 9 10 10 10 11 11 11 11 12 13 13 13 13 11 8 8 8 7 7 7 7 8 9 9 8
8 11 6 3 4 5 6 6 4 2 1 4 5 5 2 3 5 6 7 9 10 10 10 11 12 12 13 13 13 14 14 14 13 10 8 6 6 6 7 6 7 9 9 9
12 2 4 7 8 8 8 7 4 2 3 4 6 5 4 4 4 5 7 7 9 10 11 12 12 13 13 13 13 12 14 14 13 11 8 6 5 5 6 7 7 8 9 10
11 7 6 9 9 9 8 4 4 4 6 3 4 5 2 3 4 5 6 7 8 10 11 11 12 12 12 12 12 12 12 13 12 11 10 11 9 9 9 7 7 8 9 10
9 10 11 11 9 9 3 2 4 5 6 7 5 7 1 3 4 4 5 6 7 9 10 11 11 11 11 11 11 11 11 11 11 12 12 11 10 8 7 7 8 8 8 10
6 6 8 8 6 7 5 5 4 6 8 8 4 6 3 0 1 1 3 5 7 8 9 10 10 10 10 10 10 10 10 10 11 11 11 11 11 10 9 9 8 8 7 8
11 11 8 7 9 9 9 9 7 7 7 5 2 6 3 2 2 2 3 6 8 9 10 10 11 11 10 11 10 10 10 10 10 10 10 11 11 11 11 9 9 8 8 8
13 12 14 12 13 10 13 13 8 6 5 3 5 5 1 2 0 1 3 6 9 10 10 10 11 10 10 11 11 10 10 10 10 10 9 9 10 9 8 9 8 8 7 7
11 9 8 10 11 11 11 13 11 9 7 7 4 3 4 4 3 3 5 7 9 9 10 10 10 10 10 10 10 10 10 9 9 9 8 8 9 8 8 7 8 7 7 7
7 7 9 8 8 8 8 9 7 9 7 8 6 6 3 3 3 4 6 7 9 10 10 10 10 9 10 10 9 9 9 8 8 8 7 7 8 8 8 7 7 7 7 7
12 10 9 10 12 14 10 10 9 9 9 7 6 3 2 2 3 4 6 7 9 10 10 10 10 9 9 9 9 9 8 8 7 7 7 6 7 7 7 7 7 7 7 7
15 10 11 12 7 5 13 14 13 10 9 8 8 3 5 2 3 4 5 7 8 9 10 10 10 10 10 9 9 9 8 8 7 7 7 7 6 6 7 7 7 7 7 7
12 10 11 11 11 9 12 13 14 13 9 10 11 5 7 4 3 4 5 7 8 10 10 10 11 10 10 9 9 9 8 8 7 7 7 7 7 6 6 6 6 6 6 6
8 11 14 14 9 14 15 15 15 15 12 12 13 9 5 5 4 5 6 7 8 10 11 11 11 10 10 9 9 9 8 7 7 7 7 6 6 6 6 6 5 5 5 6
7 11 14 14 8 8 12 15 17 18 17 14 12 12 8 4 4 4 6 7 8 10 11 11 11 10 10 10 10 9 8 7 7 7 7 6 6 5 5 5 5 5 4 5
5 7 11 14 12 12 13 13 15 16 15 15 13 11 6 3 3 4 6 8 9 10 10 11 11 11 12 11 11 10 9 8 7 7 7 6 6 6 5 4 4 4 4 3
5 6 9 14 13 12 16 17 16 15 13 13 13 9 4 4 3 4 5 7 8 9 10 10 10 10 11 11 11 11 10 9 8 7 6 6 6 6 5 5 4 4 4 3
5 7 8 11 9 15 12 8 13 15 13 12 9 5 3 3 2 2 3 5 6 7 9 9 9 10 10 10 11 10 10 9 9 8 7 6 6 6 6 5 5 4 3 3
10 7 8 12 15 15 7 6 10 13 13 10 9 6 3 1 3 3 2 2 4 5 6 7 8 9 9 10 11 11 10 10 9 8 7 6 6 6 6 6 5 4 4 4
11 10 10 11 15 17 10 7 5 8 11 6 6 5 3 4 7 2 3 2 3 4 5 6 7 8 9 9 10 11 10 9 8 7 7 6 6 6 6 6 5 5 4 4
15 13 16 16 15 12 3 5 7 11 6 2 3 3 3 3 2 3 3 3 4 5 6 6 7 7 7 8 9 9 8 8 7 6 6 6 6 6 5 5 4 5 5 4
16 15 16 16 17 12 4 6 6 0 3 2 1 2 2 2 3 4 5 5 5 6 6 7 7 6 6 7 8 8 7 6 6 6 6 5 5 4 5 5 4 4 5 5
10 9 9 10 8 2 2 1 2 2 1 2 1 1 3 3 4 4 5 5 5 6 6 6 7 7 6 5 6 7 5 5 6 6 5 5 5 4 4 5 5 5 5 4
5 2 4 4 4 2 1 0 1 1 1 1 1 1 3 4 5 5 5 5 5 5 6 6 7 7 6 5 5 5 5 5 5 6 5 5 4 4 3 3 3 4 4 5
3 4 6 7 4 3 3 1 0 1 1 2 2 2 3 5 5 6 5 5 5 5 5 5 5 5 5 5 5 4 4 4 5 5 4 4 4 4 3 3 1 1 2 2
5 5 6 5 1 2 1 0 0 1 2 2 3 4 4 5 5 6 5 5 5 5 5 5 6 5 5 4 4 3 3 4 4 4 4 3 3 3 4 4 3 7 5 5
Wind_Direction
201 224 221 215 237 284 275 261 255 300 343 295 284 284 240 210 212 207 198 189 189 193 187 181 183 187 189 187 187 189 188 184 184 189 197 199 207 213 215 215 211 211 213 208
207 225 222 207 212 228 237 245 236 206 342 296 293 279 230 203 215 215 206 196 195 189 181 180 183 186 193 191 191 189 191 189 192 194 198 203 207 213 213 214 213 215 214 213
220 160 173 201 208 222 230 246 253 283 287 240 283 243 195 180 194 204 211 204 197 191 186 183 187 190 192 192 193 194 193 193 196 195 195 198 199 213 214 212 211 212 215 219
229 204 196 212 217 228 228 228 249 259 270 275 293 293 195 200 203 201 204 201 197 191 188 185 188 190 193 193 190 193 191 195 196 195 201 203 207 210 216 216 212 210 215 223
210 204 207 219 220 223 235 166 226 249 266 274 252 282 285 180 224 206 198 198 193 186 188 186 188 187 189 188 186 188 190 193 195 199 205 210 220 221 220 218 218 221 219 222
214 196 217 222 208 201 170 182 203 237 252 253 264 278 281 70 318 216 187 187 185 180 179 179 179 176 178 181 182 183 186 192 195 199 206 212 222 224 224 223 222 220 219 219
210 211 207 204 189 185 205 218 226 229 231 245 153 260 286 23 360 293 221 188 179 174 172 172 175 176 176 179 180 180 183 189 194 200 206 212 221 223 225 225 223 223 221 218
205 209 204 206 215 205 211 226 242 259 257 232 183 251 285 89 30 265 187 172 170 170 170 171 174 175 177 178 178 180 183 186 192 199 205 210 216 222 223 223 225 221 223 225
213 208 178 202 215 222 208 226 243 256 267 272 250 252 248 175 177 164 157 163 168 168 167 168 169 172 173 176 178 181 182 185 191 197 198 204 211 219 219 219 221 220 220 219
220 210 175 171 183 213 241 222 216 234 244 251 240 241 248 190 178 168 169 170 169 169 170 168 168 171 171 173 174 178 181 185 188 192 197 201 208 212 212 213 211 212 217 220
223 221 184 185 204 196 194 207 220 229 244 257 252 229 131 210 192 190 180 174 173 174 173 170 169 168 169 170 173 176 177 182 186 190 192 197 200 203 206 208 208 209 215 217
212 222 220 208 192 237 214 216 212 221 225 243 267 248 119 175 191 198 182 170 171 173 170 169 168 168 170 171 172 175 179 183 184 184 186 192 194 196 200 203 206 206 208 214
191 210 213 209 205 208 220 220 222 231 235 235 243 234 136 171 196 191 182 168 167 172 172 171 172 174 174 173 175 176 181 182 181 181 185 187 189 189 190 192 197 199 202 208
203 216 223 225 218 199 208 212 214 220 226 231 239 254 206 213 213 194 181 176 173 174 176 178 177 177 175 174 174 178 179 181 181 181 183 186 190 188 187 186 188 192 200 208
208 221 226 245 247 218 214 211 209 219 235 243 240 244 248 240 229 206 188 181 177 176 178 181 181 176 175 174 174 176 176 176 179 182 184 188 186 184 184 183 185 190 198 205
214 236 225 232 231 230 233 223 215 222 232 241 250 249 250 236 216 197 190 188 186 184 184 182 182 178 179 178 176 173 173 173 177 181 180 179 178 176 175 175 175 180 188 194
210 221 224 228 219 220 230 226 220 220 225 233 237 240 231 227 222 208 199 199 197 191 188 185 181 178 177 178 175 173 172 171 174 176 176 176 178 177 176 176 177 180 183 181
235 232 230 230 205 228 232 215 221 223 225 229 242 250 247 256 247 208 206 207 201 195 188 183 178 174 172 172 171 169 167 171 173 174 176 177 179 177 174 175 173 175 177 177
224 227 231 228 226 231 211 198 209 215 225 224 231 236 234 219 206 182 146 188 195 190 181 174 174 169 164 166 167 165 166 169 172 174 176 176 179 178 178 179 176 176 175 174
206 222 234 228 237 234 220 177 200 218 222 205 215 226 232 231 244 185 83 104 136 141 142 149 156 154 157 160 163 166 167 169 174 174 175 177 178 177 180 179 177 173 170 170
198 208 224 229 234 238 153 147 182 215 217 152 197 217 226 228 323 66 99 108 119 124 130 137 141 145 148 153 159 164 163 167 166 165 165 168 171 174 172 168 169 168 169 167
209 210 216 225 232 225 147 180 208 290 49 70 166 186 183 126 101 100 106 111 118 121 125 127 127 126 131 146 154 155 155 151 150 153 156 157 160 164 160 161 162 164 167 165
228 239 229 224 227 112 126 149 24 355 4 23 50 130 157 150 131 117 115 113 113 115 115 117 121 120 119 132 145 142 140 146 150 145 146 149 154 161 165 167 166 168 177 183
207 270 243 225 195 163 151 144 340 334 327 358 52 144 159 150 136 127 121 113 107 107 112 115 117 116 113 113 114 125 137 149 152 151 156 161 165 166 159 168 181 188 191 192
239 220 224 228 213 208 203 210 56 70 88 95 100 117 133 137 133 124 116 108 104 102 101 104 106 112 113 115 116 130 140 152 156 159 167 171 173 169 161 150 95 213 194 206
229 236 235 230 191 256 214 3 220 154 130 116 114 109 113 130 131 123 114 107 109 110 108 104 101 102 104 106 106 110 127 151 160 171 177 179 177 175 176 162 126 53 55 73
Height
1524 1521 1518 1516 1517 1518 1518 1518 1518 1516 1514 1514 1512 1512 1513 1516 1518 1520 1523 1526 1529 1531 1534 1535 1537 1539 1542 1544 1545 1548 1550 1552 1555 1558 1560 1563 1565 1568 1570 1572 1573 1575 1577 1579
1522 1519 1516 1518 1520 1521 1520 1520 1518 1516 1515 1514 1512 1511 1510 1514 1516 1518 1520 1523 1526 1529 1532 1533 1535 1537 1540 1541 1543 1545 1548 1550 1552 1555 1558 1561 1563 1566 1568 1569 1571 1573 1575 1577
1517 1516 1518 1520 1521 1521 1519 1519 1517 1518 1515 1512 1513 1510 1509 1511 1514 1517 1518 1521 1524 1526 1529 1531 1533 1536 1538 1539 1541 1543 1545 1548 1550 1553 1555 1558 1560 1563 1565 1567 1569 1571 1573 1575
1515 1514 1519 1519 1518 1517 1519 1514 1516 1518 1518 1513 1516 1518 1508 1506 1510 1512 1515 1518 1521 1524 1526 1529 1531 1533 1535 1537 1539 1541 1543 1545 1548 1550 1553 1555 1557 1559 1561 1564 1566 1568 1570 1572
1512 1513 1517 1518 1515 1515 1514 1515 1516 1516 1517 1518 1514 1518 1507 1504 1507 1508 1511 1515 1518 1521 1524 1527 1529 1531 1534 1536 1538 1539 1541 1543 1545 1547 1550 1552 1554 1556 1558 1560 1562 1564 1567 1568
1508 1512 1512 1511 1512 1514 1516 1517 1517 1515 1514 1526 1517 1521 1514 1502 1505 1505 1509 1513 1516 1519 1522 1525 1528 1530 1532 1534 1536 1538 1539 1541 1543 1545 1547 1548 1550 1552 1554 1556 1558 1561 1563 1565
1513 1511 1510 1511 1512 1515 1515 1519 1525 1527 1525 1522 1515 1519 1511 1501 1503 1505 1507 1511 1514 1518 1520 1523 1526 1528 1530 1532 1534 1536 1537 1539 1540 1542 1544 1545 1547 1549 1550 1552 1555 1557 1559 1561
1511 1511 1505 1506 1507 1508 1511 1512 1525 1532 1527 1517 1517 1516 1503 1500 1504 1505 1507 1509 1513 1516 1519 1522 1525 1527 1529 1531 1533 1534 1535 1537 1538 1540 1541 1543 1544 1546 1548 1549 1552 1553 1556 1558
1500 1503 1499 1502 1503 1504 1509 1509 1501 1512 1518 1522 1512 1508 1499 1499 1501 1504 1506 1509 1511 1515 1518 1521 1523 1526 1528 1530 1531 1533 1534 1535 1537 1538 1539 1540 1542 1543 1545 1547 1548 1551 1552 1555
1494 1503 1499 1502 1505 1505 1502 1501 1508 1514 1528 1530 1518 1513 1505 1498 1499 1501 1504 1507 1510 1514 1517 1520 1522 1525 1527 1529 1530 1531 1532 1534 1535 1536 1537 1539 1539 1541 1542 1544 1546 1548 1550 1552
1492 1501 1501 1501 1503 1503 1507 1508 1505 1506 1508 1521 1523 1511 1491 1495 1497 1499 1502 1505 1509 1512 1515 1518 1521 1524 1526 1527 1529 1530 1531 1532 1533 1535 1536 1537 1537 1539 1540 1542 1543 1545 1547 1549
1492 1496 1499 1496 1493 1494 1495 1498 1503 1513 1516 1513 1512 1506 1489 1493 1495 1498 1500 1504 1508 1511 1514 1517 1520 1522 1524 1526 1527 1529 1530 1531 1532 1533 1534 1535 1536 1537 1538 1540 1541 1543 1544 1546
1491 1497 1507 1504 1503 1500 1498 1496 1496 1499 1504 1508 1512 1504 1490 1493 1495 1497 1499 1503 1507 1510 1513 1515 1518 1520 1522 1524 1526 1528 1529 1530 1531 1532 1533 1534 1535 1536 1537 1538 1539 1541 1542 1543
1492 1491 1494 1496 1489 1486 1495 1495 1495 1498 1502 1504 1503 1495 1489 1489 1492 1495 1499 1502 1505 1508 1511 1514 1516 1518 1520 1522 1524 1526 1528 1529 1530 1531 1532 1533 1534 1535 1536 1537 1538 1539 1540 1541
1491 1489 1487 1483 1479 1481 1484 1487 1491 1495 1492 1495 1492 1490 1486 1487 1490 1494 1497 1500 1503 1506 1509 1512 1514 1516 1518 1520 1522 1524 1526 1527 1529 1530 1531 1532 1533 1533 1534 1535 1536 1537 1538 1539
1491 1488 1486 1488 1482 1483 1485 1483 1485 1488 1487 1487 1486 1486 1482 1486 1490 1493 1496 1498 1501 1503 1506 1509 1512 1514 1516 1518 1520 1522 1524 1525 1527 1528 1529 1530 1531 1532 1533 1534 1535 1536 1536 1537
1488 1491 1491 1486 1480 1486 1490 1481 1481 1483 1482 1483 1486 1483 1482 1486 1489 1491 1494 1496 1498 1501 1504 1506 1509 1511 1513 1516 1518 1520 1522 1523 1525 1526 1528 1529 1530 1531 1532 1533 1533 1534 1535 1536
1492 1492 1487 1482 1489 1500 1477 1470 1472 1476 1478 1479 1480 1481 1484 1486 1489 1491 1493 1494 1496 1499 1501 1504 1506 1508 1511 1513 1516 1518 1520 1521 1523 1525 1526 1527 1528 1529 1530 1531 1531 1532 1533 1533
1490 1491 1486 1482 1486 1482 1475 1473 1473 1477 1478 1477 1479 1482 1484 1486 1488 1489 1492 1493 1495 1497 1499 1501 1503 1506 1508 1510 1513 1515 1517 1519 1521 1523 1524 1525 1526 1527 1528 1528 1529 1530 1531 1531
1487 1489 1486 1483 1486 1485 1472 1471 1475 1477 1481 1477 1480 1482 1484 1485 1482 1485 1491 1492 1493 1495 1497 1499 1501 1503 1505 1508 1510 1513 1515 1517 1518 1520 1521 1522 1523 1524 1525 1526 1527 1527 1528 1528
1483 1486 1484 1482 1482 1472 1469 1474 1477 1484 1480 1479 1480 1482 1484 1484 1485 1489 1490 1491 1493 1494 1495 1497 1499 1501 1503 1505 1508 1510 1512 1514 1516 1517 1519 1520 1521 1521 1522 1523 1524 1525 1525 1526
1472 1474 1479 1478 1481 1477 1473 1474 1475 1477 1480 1480 1481 1483 1485 1486 1488 1489 1490 1491 1492 1493 1495 1496 1498 1500 1501 1503 1505 1508 1510 1511 1513 1514 1516 1517 1518 1519 1519 1520 1521 1522 1522 1523
1468 1467 1463 1468 1472 1475 1476 1477 1479 1480 1481 1482 1483 1484 1485 1487 1488 1489 1491 1492 1493 1493 1494 1496 1497 1498 1500 1502 1504 1505 1507 1509 1511 1511 1513 1514 1515 1516 1516 1517 1518 1519 1519 1520
1471 1474 1470 1471 1472 1475 1477 1478 1480 1481 1482 1483 1483 1484 1485 1487 1488 1489 1491 1492 1493 1493 1494 1495 1496 1498 1499 1501 1502 1504 1506 1507 1508 1509 1510 1511 1513 1513 1514 1514 1516 1516 1517 1517
1472 1473 1470 1472 1474 1476 1478 1479 1480 1481 1482 1482 1483 1484 1486 1487 1488 1489 1490 1491 1492 1493 1494 1494 1495 1497 1498 1499 1500 1502 1503 1504 1505 1506 1508 1509 1510 1510 1511 1511 1512 1513 1513 1514
1474 1474 1472 1470 1475 1476 1478 1480 1480 1481 1482 1482 1483 1484 1486 1487 1488 1489 1490 1491 1492 1493 1493 1494 1495 1496 1497 1497 1498 1499 1500 1501 1502 1504 1505 1505 1506 1507 1508 1508 1508 1509 1510 1510